Location: Greenwich
(51.4790°N, 0.0090°E)
Time: 22:37:35
(UTC+01:00)

N. Korean satellite - Pass Details

Date: 27 September 2021
Orbit: 450 x 495 km, 97.3° (Epoch: 23 October)

Event Time Altitude Azimuth Distance (km) Brightness Sun altitude
Rises 05:08:27 0° 32° (NNE) 2,533 11.0 -17.0°
Reaches altitude 10° 05:11:39 10° 64° (ENE) 1,660 10.6 -16.5°
Maximum altitude 05:13:07 12° 88° (E) 1,534 10.2 -16.3°
Drops below altitude 10° 05:14:36 10° 113° (ESE) 1,664 10.0 -16.1°
Sets 05:17:49 0° 145° (SE) 2,548 10.5 -15.6°
